QPF
0.00 0.00 0.00 0.00 0.00 0.00 0.00 0.00 0.00 0.00 0.00 0.00 0.00 0.00 0.00 0.00 0.00 0.00 0.00 0.00 0.00 0.00 0.00 0.00 0.00 0.00 0.00 0.00 0.00 0.00 0.00 0.00 0.00 0.00 0.00 0.00 0.00 0.00 0.00 0.00 0.00 0.00 0.00 0.00 0.00
0.00 0.00 0.00 0.00 0.00 0.00 0.00 0.00 0.00 0.00 0.00 0.00 0.00 0.00 0.00 0.00 0.00 0.00 0.00 0.00 0.00 0.00 0.00 0.00 0.00 0.00 0.00 0.00 0.00 0.00 0.00 0.00 0.00 0.00 0.00 0.00 0.00 0.00 0.00 0.00 0.00 0.00 0.00 0.00 0.00
0.00 0.00 0.00 0.00 0.00 0.00 0.00 0.00 0.00 0.00 0.00 0.00 0.00 0.00 0.00 0.00 0.00 0.00 0.00 0.00 0.00 0.00 0.00 0.00 0.00 0.00 0.00 0.00 0.00 0.00 0.01 0.00 0.00 0.00 0.00 0.00 0.00 0.00 0.00 0.00 0.00 0.00 0.00 0.00 0.00
0.00 0.00 0.00 0.00 0.00 0.00 0.00 0.00 0.00 0.00 0.00 0.00 0.00 0.00 0.00 0.00 0.00 0.00 0.00 0.00 0.00 0.00 0.00 0.00 0.00 0.00 0.00 0.00 0.00 0.00 0.00 0.00 0.00 0.00 0.00 0.00 0.00 0.00 0.00 0.00 0.00 0.00 0.00 0.00 0.00
0.00 0.00 0.00 0.00 0.00 0.00 0.00 0.00 0.00 0.00 0.00 0.00 0.00 0.00 0.00 0.00 0.00 0.00 0.00 0.00 0.00 0.00 0.00 0.00 0.00 0.00 0.00 0.00 0.00 0.00 0.00 0.00 0.00 0.00 0.00 0.00 0.00 0.00 0.00 0.00 0.00 0.00 0.00 0.00 0.00
0.00 0.00 0.00 0.00 0.00 0.00 0.00 0.00 0.00 0.00 0.00 0.00 0.00 0.00 0.00 0.00 0.00 0.00 0.00 0.00 0.00 0.00 0.00 0.00 0.00 0.00 0.00 0.00 0.00 0.00 0.00 0.00 0.00 0.00 0.00 0.00 0.00 0.00 0.00 0.00 0.00 0.00 0.00 0.00 0.00
0.00 0.00 0.00 0.00 0.00 0.00 0.00 0.00 0.00 0.00 0.00 0.00 0.00 0.00 0.00 0.00 0.00 0.00 0.00 0.00 0.00 0.00 0.00 0.00 0.00 0.00 0.00 0.00 0.00 0.00 0.00 0.00 0.00 0.00 0.00 0.00 0.00 0.00 0.00 0.00 0.00 0.00 0.00 0.00 0.00
0.00 0.00 0.00 0.00 0.00 0.00 0.00 0.00 0.00 0.00 0.00 0.00 0.00 0.00 0.00 0.00 0.00 0.00 0.00 0.00 0.00 0.00 0.00 0.00 0.00 0.00 0.00 0.00 0.00 0.00 0.00 0.00 0.00 0.00 0.00 0.00 0.00 0.00 0.00 0.00 0.00 0.00 0.00 0.00 0.00
0.00 0.00 0.00 0.00 0.00 0.00 0.00 0.00 0.00 0.00 0.00 0.00 0.00 0.00 0.00 0.00 0.00 0.00 0.00 0.00 0.00 0.00 0.00 0.00 0.00 0.00 0.00 0.00 0.00 0.00 0.00 0.00 0.00 0.00 0.00 0.00 0.00 0.00 0.00 0.00 0.00 0.00 0.00 0.00 0.00
0.00 0.00 0.00 0.00 0.00 0.00 0.00 0.00 0.00 0.00 0.00 0.00 0.00 0.00 0.00 0.00 0.00 0.00 0.00 0.00 0.00 0.00 0.00 0.00 0.00 0.00 0.00 0.00 0.00 0.00 0.00 0.00 0.00 0.00 0.00 0.00 0.01 0.00 0.00 0.00 0.00 0.00 0.00 0.00 0.00
0.00 0.00 0.00 0.00 0.00 0.00 0.00 0.00 0.00 0.00 0.00 0.00 0.00 0.00 0.00 0.00 0.00 0.00 0.00 0.00 0.00 0.00 0.00 0.00 0.00 0.00 0.00 0.00 0.00 0.00 0.00 0.00 0.00 0.00 0.00 0.00 0.00 0.00 0.00 0.00 0.00 0.00 0.00 0.00 0.00
0.00 0.00 0.00 0.00 0.00 0.00 0.00 0.00 0.00 0.00 0.00 0.00 0.00 0.00 0.00 0.00 0.00 0.00 0.00 0.00 0.00 0.00 0.00 0.00 0.00 0.00 0.00 0.00 0.00 0.00 0.00 0.00 0.00 0.00 0.00 0.00 0.00 0.00 0.00 0.00 0.00 0.00 0.00 0.00 0.00
0.00 0.00 0.00 0.00 0.00 0.00 0.00 0.00 0.00 0.00 0.00 0.00 0.00 0.00 0.00 0.00 0.00 0.00 0.00 0.00 0.00 0.00 0.00 0.00 0.00 0.00 0.00 0.00 0.00 0.00 0.00 0.00 0.00 0.00 0.00 0.00 0.00 0.00 0.00 0.00 0.00 0.00 0.00 0.00 0.00
0.00 0.00 0.00 0.00 0.00 0.00 0.00 0.00 0.00 0.00 0.00 0.00 0.00 0.00 0.00 0.00 0.00 0.00 0.00 0.00 0.00 0.00 0.00 0.00 0.00 0.00 0.00 0.00 0.00 0.00 0.00 0.00 0.00 0.00 0.00 0.00 0.00 0.00 0.00 0.00 0.00 0.00 0.00 0.00 0.00
0.00 0.00 0.00 0.00 0.00 0.00 0.00 0.00 0.00 0.00 0.00 0.00 0.00 0.00 0.00 0.00 0.00 0.00 0.00 0.00 0.00 0.00 0.00 0.00 0.00 0.00 0.00 0.00 0.00 0.00 0.00 0.00 0.00 0.00 0.00 0.00 0.00 0.00 0.00 0.00 0.00 0.00 0.00 0.00 0.00
0.00 0.00 0.00 0.00 0.00 0.00 0.00 0.00 0.00 0.00 0.00 0.00 0.00 0.00 0.00 0.00 0.00 0.00 0.00 0.00 0.00 0.00 0.00 0.00 0.00 0.00 0.00 0.00 0.00 0.00 0.00 0.00 0.00 0.00 0.00 0.00 0.00 0.00 0.00 0.00 0.00 0.00 0.00 0.00 0.00
0.00 0.00 0.00 0.00 0.00 0.00 0.00 0.00 0.00 0.00 0.00 0.00 0.00 0.00 0.00 0.00 0.00 0.00 0.00 0.00 0.00 0.00 0.00 0.00 0.00 0.00 0.00 0.00 0.00 0.00 0.00 0.00 0.00 0.00 0.00 0.00 0.00 0.00 0.00 0.00 0.00 0.00 0.00 0.00 0.00
0.00 0.00 0.00 0.00 0.00 0.00 0.00 0.00 0.00 0.00 0.00 0.00 0.00 0.00 0.00 0.00 0.00 0.00 0.00 0.00 0.00 0.00 0.00 0.00 0.00 0.00 0.00 0.00 0.00 0.00 0.00 0.00 0.00 0.00 0.00 0.00 0.00 0.00 0.00 0.00 0.00 0.00 0.00 0.00 0.00
0.00 0.00 0.00 0.00 0.00 0.00 0.00 0.00 0.00 0.00 0.00 0.00 0.00 0.00 0.00 0.00 0.00 0.00 0.00 0.00 0.00 0.00 0.00 0.00 0.00 0.00 0.00 0.00 0.00 0.00 0.00 0.00 0.00 0.00 0.00 0.00 0.00 0.00 0.00 0.00 0.00 0.00 0.00 0.00 0.00
0.00 0.00 0.00 0.00 0.00 0.00 0.00 0.00 0.00 0.00 0.00 0.00 0.00 0.00 0.00 0.00 0.00 0.00 0.00 0.00 0.00 0.00 0.00 0.00 0.00 0.00 0.00 0.00 0.00 0.00 0.00 0.00 0.00 0.00 0.00 0.00 0.00 0.00 0.00 0.00 0.00 0.00 0.00 0.00 0.00
0.00 0.00 0.00 0.00 0.00 0.00 0.00 0.00 0.00 0.00 0.00 0.00 0.00 0.00 0.00 0.00 0.00 0.00 0.00 0.00 0.00 0.00 0.00 0.00 0.00 0.00 0.00 0.00 0.00 0.00 0.00 0.00 0.00 0.00 0.00 0.00 0.00 0.00 0.00 0.00 0.00 0.00 0.00 0.00 0.00
0.00 0.00 0.00 0.00 0.00 0.00 0.00 0.00 0.00 0.00 0.00 0.00 0.00 0.00 0.00 0.00 0.00 0.00 0.00 0.00 0.00 0.00 0.00 0.00 0.00 0.00 0.00 0.00 0.00 0.00 0.00 0.00 0.00 0.00 0.00 0.00 0.00 0.00 0.00 0.00 0.00 0.00 0.00 0.00 0.00
0.00 0.00 0.00 0.00 0.00 0.00 0.00 0.00 0.00 0.00 0.00 0.00 0.00 0.00 0.00 0.00 0.00 0.00 0.00 0.00 0.00 0.00 0.00 0.00 0.00 0.00 0.00 0.00 0.00 0.00 0.00 0.00 0.00 0.00 0.00 0.00 0.00 0.00 0.00 0.00 0.00 0.00 0.00 0.00 0.00
0.00 0.00 0.00 0.00 0.00 0.00 0.00 0.00 0.00 0.00 0.00 0.00 0.00 0.00 0.00 0.00 0.00 0.00 0.00 0.00 0.00 0.00 0.00 0.00 0.00 0.00 0.00 0.00 0.00 0.00 0.00 0.00 0.00 0.00 0.00 0.00 0.00 0.00 0.00 0.00 0.00 0.00 0.00 0.00 0.00
0.00 0.00 0.00 0.00 0.00 0.01 0.00 0.00 0.00 0.00 0.00 0.00 0.00 0.00 0.00 0.00 0.00 0.00 0.00 0.00 0.00 0.00 0.00 0.00 0.00 0.00 0.00 0.00 0.00 0.00 0.00 0.00 0.00 0.00 0.00 0.00 0.00 0.00 0.00 0.00 0.00 0.00 0.00 0.00 0.00
0.02 0.02 0.01 0.00 0.00 0.00 0.00 0.00 0.00 0.00 0.00 0.00 0.00 0.00 0.00 0.00 0.00 0.00 0.00 0.00 0.00 0.00 0.00 0.00 0.00 0.00 0.00 0.00 0.00 0.00 0.00 0.00 0.00 0.00 0.00 0.00 0.00 0.00 0.00 0.00 0.00 0.00 0.00 0.00 0.00
0.03 0.03 0.02 0.00 0.00 0.00 0.00 0.00 0.00 0.01 0.00 0.00 0.00 0.00 0.00 0.00 0.00 0.00 0.00 0.00 0.00 0.00 0.00 0.00 0.00 0.00 0.00 0.00 0.00 0.00 0.00 0.00 0.00 0.00 0.00 0.00 0.00 0.00 0.00 0.00 0.00 0.00 0.00 0.00 0.00
MSLP
1018.16 1017.60 1017.09 1016.55 1015.99 1015.46 1015.02 1014.56 1014.07 1013.58 1013.19 1012.74 1012.33 1011.80 1011.08 1010.53 1009.45 1008.94 1006.12 1004.31 1004.47 1005.08 1005.50 1004.60 1004.03 1003.32 1002.96 1001.88 1000.43 999.99 999.56 997.85 998.15 998.26 999.83 1001.17 1001.36 1002.29 1002.81 1003.94 1004.60 1004.80 1005.86 1007.48 1008.72
1018.36 1017.80 1017.18 1016.63 1016.10 1015.50 1014.92 1014.49 1014.01 1013.55 1013.05 1012.55 1012.17 1011.77 1011.02 1010.53 1008.52 1005.70 1004.04 1004.09 1004.43 1005.06 1004.80 1003.51 1002.97 1002.59 1001.89 1000.97 999.70 999.71 1000.69 998.34 997.85 998.72 999.08 1000.62 1001.03 1002.00 1002.89 1003.91 1004.54 1005.30 1005.89 1007.85 1008.93
1018.51 1017.94 1017.32 1016.65 1016.06 1015.48 1014.89 1014.32 1013.84 1013.39 1013.02 1012.50 1011.98 1011.64 1011.03 1010.39 1006.97 1003.02 1004.03 1004.24 1004.59 1004.92 1003.63 1002.75 1002.12 1001.77 1000.99 999.97 999.33 998.50 999.81 997.89 998.18 998.55 998.97 1000.20 1000.63 1001.72 1002.07 1003.23 1004.15 1005.13 1006.50 1007.91 1008.74
1018.57 1018.03 1017.47 1016.75 1016.05 1015.41 1014.78 1014.15 1013.55 1013.08 1012.70 1012.36 1011.86 1011.43 1010.87 1009.13 1004.80 1003.08 1004.03 1004.31 1004.53 1004.22 1003.63 1002.29 1001.68 1001.07 1000.45 999.41 998.87 998.29 998.73 998.08 998.04 998.86 998.58 999.56 1000.15 1001.27 1002.07 1001.98 1003.74 1005.05 1006.48 1007.69 1008.41
1018.58 1018.01 1017.40 1016.75 1016.05 1015.29 1014.65 1013.98 1013.33 1012.68 1012.30 1011.96 1011.70 1011.37 1010.31 1006.97 1003.53 1002.92 1003.60 1004.31 1004.37 1004.08 1002.91 1001.81 1001.07 1000.33 999.81 998.96 998.33 998.03 997.61 997.75 998.00 998.51 998.48 998.96 999.95 1000.81 1001.85 1002.59 1003.72 1004.94 1006.37 1007.32 1007.90
1018.52 1017.88 1017.20 1016.45 1015.69 1014.93 1014.23 1013.60 1012.95 1012.24 1011.69 1011.39 1011.30 1011.32 1009.26 1004.97 1001.80 1001.88 1002.47 1003.03 1002.62 1002.98 1002.15 1001.68 1000.62 1000.12 999.53 998.73 997.83 997.60 997.57 997.53 997.79 997.80 998.59 998.83 999.71 1001.07 1001.71 1002.84 1003.68 1004.91 1005.99 1006.80 1007.36
1018.43 1017.86 1017.14 1016.28 1015.37 1014.53 1013.65 1013.01 1012.39 1011.63 1010.98 1010.60 1010.58 1010.36 1007.03 1003.05 1001.21 1001.32 1001.93 1001.79 1001.54 1001.62 1001.34 1001.10 1000.74 1000.06 999.53 998.50 997.90 997.58 997.73 997.51 997.76 997.77 998.37 998.93 999.44 1000.42 1001.22 1002.66 1003.55 1004.59 1005.50 1006.18 1006.81
1018.33 1017.59 1016.84 1015.91 1015.08 1014.28 1013.38 1012.27 1011.62 1010.91 1010.26 1009.92 1009.98 1009.02 1004.59 1000.78 1000.88 1000.93 1001.28 1001.18 1001.14 1001.13 1000.96 1000.48 1000.62 999.98 999.17 998.55 997.54 997.48 997.28 996.39 996.61 997.52 998.17 998.86 998.43 999.80 1000.89 1002.13 1002.91 1004.06 1004.94 1005.72 1006.37
1018.32 1017.52 1016.76 1015.53 1014.41 1013.36 1012.71 1011.68 1010.80 1010.23 1009.75 1009.68 1008.89 1006.78 1002.36 1001.13 1000.75 1000.40 1000.53 1000.39 1000.35 1000.57 1000.67 1000.51 1000.21 999.87 999.39 998.31 997.22 996.89 996.08 995.87 996.24 997.15 997.95 998.55 999.97 999.42 1000.54 1001.41 1002.14 1003.37 1004.24 1005.09 1005.90
1018.30 1017.37 1016.60 1015.46 1014.39 1013.17 1011.88 1010.25 1009.84 1009.96 1009.44 1008.36 1006.88 1005.16 1001.09 999.23 999.07 999.25 999.52 999.77 999.75 1000.02 1000.28 1000.30 999.76 999.20 998.64 997.59 996.06 995.59 995.62 994.82 995.17 996.68 997.60 998.15 998.80 998.84 1000.10 1000.70 1001.41 1002.51 1003.47 1004.41 1005.13
1018.06 1017.33 1016.33 1015.31 1014.11 1012.96 1011.64 1008.43 1009.12 1008.31 1006.64 1003.76 1001.79 1000.30 998.78 998.31 999.09 999.25 999.17 999.34 999.34 999.40 998.86 998.99 998.56 997.25 997.11 996.75 996.31 995.09 994.54 994.30 994.43 995.46 997.03 997.57 997.77 998.50 999.56 1000.17 1000.59 1001.47 1002.64 1003.47 1004.26
1017.88 1017.20 1016.09 1014.92 1013.65 1012.58 1011.81 1008.16 1007.86 1007.83 1004.76 1002.26 1000.68 999.63 998.74 997.97 997.96 998.25 998.80 998.72 998.42 998.11 998.23 998.05 996.91 996.82 996.95 996.59 996.12 994.98 994.08 993.82 994.09 994.88 996.20 996.71 996.91 997.40 998.60 999.49 999.98 1000.38 1001.38 1002.41 1003.26
1017.77 1017.19 1016.29 1014.57 1012.79 1011.35 1009.38 1007.84 1007.70 1007.18 1004.49 999.52 997.83 997.40 997.35 998.03 997.36 996.99 997.82 997.87 997.42 997.33 996.84 995.85 995.90 996.45 996.06 995.73 995.41 994.86 993.84 993.39 993.67 994.40 995.70 996.10 996.46 996.44 997.20 998.41 999.22 999.73 1000.13 1001.06 1001.94
1017.64 1016.96 1016.46 1015.07 1012.46 1010.26 1008.07 1007.97 1007.51 1007.17 1003.50 997.45 996.14 995.64 996.13 996.81 996.50 996.63 996.52 997.06 996.55 996.12 996.05 995.64 995.27 995.36 995.43 995.03 994.85 994.20 994.36 993.76 993.63 995.01 995.42 995.80 994.86 995.13 995.94 996.75 997.78 998.65 999.14 999.64 1000.60
1017.35 1016.68 1016.27 1016.04 1013.73 1010.12 1008.24 1008.13 1007.73 1006.84 1001.04 995.02 994.91 994.96 995.31 995.64 994.42 995.07 995.73 996.17 995.61 995.54 995.48 994.52 994.61 994.40 994.47 994.07 994.41 994.12 994.10 994.10 993.74 993.60 994.19 994.54 994.80 993.49 994.65 994.89 995.82 996.95 997.69 998.49 999.15
1016.97 1016.39 1015.91 1013.18 1012.27 1009.88 1009.01 1008.37 1007.20 1004.74 997.55 994.13 994.12 994.55 994.64 994.60 994.09 994.65 995.30 995.62 995.70 995.15 994.86 994.14 994.44 994.23 993.82 994.31 994.34 994.55 994.17 993.90 993.95 993.66 993.49 993.53 994.34 992.82 994.89 993.49 994.06 994.88 996.05 997.15 998.00
1016.37 1015.54 1015.38 1014.22 1010.41 1008.86 1008.93 1007.69 1005.06 1000.15 995.48 993.37 993.00 993.28 993.35 992.98 993.51 993.99 994.48 994.34 994.16 994.30 993.70 993.93 993.38 993.68 993.75 994.12 994.18 994.48 993.97 993.29 993.01 992.60 992.46 993.23 992.71 994.39 991.75 992.36 993.16 993.53 994.11 995.14 996.67
1015.67 1014.48 1012.30 1011.01 1010.15 1009.88 1009.35 1006.82 1001.75 996.31 994.63 992.60 992.31 992.19 992.06 991.65 991.86 992.52 993.16 993.12 993.57 993.13 992.62 992.53 992.47 992.58 993.09 993.06 993.06 993.13 992.88 992.09 991.80 991.75 991.87 991.95 990.93 990.85 991.30 991.59 992.07 992.62 992.88 993.47 995.13
1015.16 1011.63 1009.71 1008.65 1009.20 1009.63 1008.07 1003.61 997.91 996.55 993.77 992.91 992.23 991.43 990.96 990.81 990.92 991.09 991.44 991.68 991.84 992.18 991.71 991.08 991.38 992.08 992.53 993.07 993.21 992.22 991.86 992.21 991.94 991.61 991.24 990.52 990.47 990.90 990.98 991.17 991.97 992.53 992.72 992.96 993.76
1014.86 1011.47 1008.03 1007.74 1009.03 1008.95 1006.48 1000.48 997.99 996.72 994.35 993.33 991.77 991.34 990.32 990.12 990.06 990.33 989.96 990.37 990.67 991.20 991.35 990.82 990.66 991.05 991.52 992.65 992.54 991.76 991.88 991.72 990.96 990.23 989.60 989.58 989.33 989.38 990.04 991.21 991.68 991.92 992.18 992.28 992.98
1013.98 1009.86 1007.72 1008.20 1008.51 1007.55 1003.62 1000.40 999.38 997.76 996.12 994.56 993.05 991.44 990.49 989.64 989.27 989.33 989.18 989.33 989.73 990.00 990.84 990.95 990.61 990.41 991.00 990.41 990.80 991.53 990.56 990.43 990.96 990.63 989.57 989.06 988.34 988.65 989.30 990.38 991.02 991.41 991.60 991.50 992.06
1012.74 1008.94 1007.16 1007.99 1007.01 1004.99 1002.81 1001.31 1000.09 997.66 996.08 995.16 994.16 992.61 991.16 990.11 989.03 988.58 988.48 988.50 988.62 989.32 989.30 990.30 990.37 990.06 989.52 990.12 990.84 990.92 990.40 990.43 989.68 990.16 989.87 989.06 987.71 987.90 988.65 989.52 990.28 990.32 990.33 990.64 991.15
1012.12 1008.70 1006.51 1006.78 1005.42 1003.49 1002.29 1000.82 999.33 998.29 996.93 995.46 994.35 993.86 992.89 991.18 989.67 988.66 988.37 988.47 988.96 989.16 988.71 989.73 989.84 989.64 990.01 989.58 989.75 989.79 989.60 989.47 989.63 989.73 988.76 988.82 988.08 988.40 988.79 988.91 989.67 990.27 990.47 990.61 990.87
1013.42 1008.63 1005.94 1005.55 1005.21 1003.97 1002.69 1001.18 999.69 998.94 997.71 996.72 995.85 994.67 993.70 992.48 991.18 989.75 989.04 988.65 989.33 990.05 989.91 989.53 989.36 989.03 988.15 988.55 988.79 989.18 989.65 989.59 989.13 988.43 988.49 988.08 988.60 988.26 988.31 988.97 989.56 990.10 990.32 990.26 990.67
1013.65 1009.78 1007.41 1006.23 1004.95 1004.90 1005.10 1003.21 1001.78 1001.63 1000.37 998.74 997.35 995.77 994.22 993.33 992.31 990.74 989.83 989.31 989.10 990.34 990.58 989.92 989.26 988.96 988.96 988.67 988.60 988.29 988.89 989.13 988.75 988.41 988.32 988.03 988.01 988.20 988.23 988.66 989.02 989.78 990.10 990.44 990.72
1014.36 1011.52 1010.29 1008.64 1006.96 1006.12 1005.44 1004.16 1003.01 1002.16 1001.94 1001.29 999.52 998.34 995.95 994.11 992.92 991.70 990.39 989.52 988.75 990.23 990.24 990.03 989.55 989.51 988.86 988.99 988.78 987.98 987.86 988.28 988.66 988.65 988.17 988.31 987.54 987.89 988.20 988.26 988.58 988.80 989.48 989.74 990.03
1014.29 1013.20 1011.97 1009.94 1007.95 1006.57 1005.49 1005.16 1004.58 1003.56 1003.00 1002.16 1002.61 1001.62 998.65 996.83 995.25 993.56 991.31 989.82 989.78 989.48 989.69 989.58 989.73 989.99 989.15 989.23 988.88 988.34 987.71 987.40 987.43 987.79 988.33 988.19 988.06 988.63 988.03 987.82 987.93 988.44 988.97 989.40 989.79
Thickness
5738 5742 5745 5748 5751 5755 5759 5762 5765 5769 5772 5777 5781 5787 5793 5798 5807 5811 5822 5844 5847 5846 5846 5851 5852 5855 5857 5853 5871 5875 5830 5846 5850 5852 5835 5844 5833 5842 5846 5824 5825 5830 5821 5815 5814
5736 5740 5744 5747 5750 5753 5756 5760 5764 5767 5771 5775 5779 5784 5791 5796 5813 5827 5850 5850 5848 5843 5842 5844 5840 5851 5845 5852 5868 5850 5794 5843 5875 5863 5852 5844 5841 5836 5827 5818 5815 5817 5827 5818 5810
5734 5738 5742 5746 5750 5753 5756 5759 5763 5766 5769 5773 5777 5781 5788 5794 5815 5844 5849 5849 5847 5845 5852 5857 5858 5852 5842 5860 5863 5865 5825 5871 5870 5875 5870 5849 5844 5846 5832 5813 5820 5811 5811 5810 5807
5732 5735 5739 5743 5749 5754 5757 5760 5763 5767 5770 5772 5775 5779 5785 5800 5797 5849 5848 5847 5846 5850 5848 5850 5849 5839 5836 5841 5867 5851 5859 5873 5876 5869 5874 5851 5858 5838 5836 5839 5838 5830 5821 5812 5806
5730 5734 5737 5741 5746 5752 5756 5761 5764 5768 5771 5773 5775 5777 5788 5802 5821 5854 5850 5845 5845 5844 5843 5845 5841 5844 5833 5852 5865 5859 5873 5878 5877 5871 5873 5872 5850 5842 5836 5845 5843 5834 5821 5813 5812
5727 5731 5736 5741 5746 5752 5757 5761 5766 5770 5774 5775 5775 5775 5788 5794 5857 5860 5858 5851 5852 5844 5844 5848 5848 5857 5848 5852 5861 5876 5874 5874 5875 5875 5868 5860 5853 5844 5843 5846 5837 5828 5819 5818 5817
5725 5729 5734 5739 5746 5752 5759 5764 5768 5773 5777 5779 5779 5780 5797 5815 5857 5860 5856 5853 5859 5853 5843 5855 5859 5848 5854 5846 5875 5873 5851 5865 5865 5869 5860 5866 5842 5835 5852 5844 5832 5826 5823 5823 5822
5723 5728 5733 5740 5745 5751 5758 5766 5771 5776 5780 5782 5781 5787 5800 5857 5858 5853 5853 5850 5860 5859 5855 5863 5861 5854 5851 5868 5867 5853 5858 5847 5871 5867 5866 5859 5832 5851 5858 5843 5832 5829 5826 5824 5825
5720 5725 5731 5739 5747 5755 5760 5767 5774 5777 5780 5781 5787 5796 5808 5851 5838 5851 5853 5842 5852 5854 5855 5859 5853 5842 5845 5833 5836 5848 5835 5849 5851 5873 5860 5853 5794 5854 5860 5849 5838 5833 5830 5827 5825
5714 5720 5726 5736 5744 5753 5763 5775 5776 5775 5779 5786 5796 5792 5827 5832 5850 5853 5858 5851 5842 5841 5833 5832 5833 5824 5829 5828 5810 5835 5841 5866 5856 5861 5858 5848 5837 5858 5857 5852 5845 5839 5836 5831 5829
5711 5716 5722 5731 5740 5748 5759 5790 5784 5782 5789 5808 5821 5825 5839 5854 5856 5841 5850 5840 5839 5831 5815 5830 5813 5810 5828 5844 5851 5866 5867 5863 5878 5878 5855 5848 5852 5853 5856 5853 5849 5845 5840 5837 5835
5706 5711 5717 5727 5738 5746 5751 5776 5773 5772 5781 5814 5823 5828 5841 5851 5829 5837 5849 5822 5821 5809 5823 5816 5808 5837 5846 5848 5846 5857 5863 5866 5882 5882 5862 5858 5855 5868 5859 5853 5855 5853 5847 5844 5843
5698 5703 5708 5721 5737 5749 5763 5769 5775 5775 5772 5818 5837 5834 5834 5836 5825 5831 5839 5829 5820 5810 5818 5820 5834 5845 5841 5841 5837 5847 5857 5870 5870 5879 5870 5862 5840 5862 5870 5864 5861 5862 5863 5857 5851
5691 5695 5699 5709 5732 5747 5759 5764 5767 5766 5758 5813 5824 5835 5839 5835 5820 5846 5850 5832 5824 5814 5821 5822 5846 5837 5832 5831 5846 5832 5866 5874 5876 5836 5817 5861 5828 5857 5868 5862 5861 5860 5863 5864 5861
5682 5687 5690 5691 5707 5731 5748 5753 5756 5753 5744 5825 5824 5855 5841 5824 5839 5836 5852 5832 5815 5818 5821 5819 5826 5830 5824 5839 5852 5841 5872 5865 5871 5866 5856 5851 5836 5863 5873 5862 5865 5869 5871 5872 5873
5671 5675 5680 5700 5706 5723 5732 5738 5742 5727 5745 5807 5822 5813 5812 5822 5829 5832 5827 5837 5832 5819 5824 5828 5845 5838 5840 5848 5851 5862 5857 5862 5864 5860 5819 5854 5832 5857 5832 5873 5881 5887 5881 5878 5878
5660 5666 5666 5673 5701 5717 5717 5720 5717 5729 5800 5797 5803 5815 5810 5811 5813 5813 5805 5806 5802 5786 5795 5813 5822 5838 5843 5823 5843 5839 5834 5811 5811 5817 5815 5858 5849 5826 5896 5896 5890 5891 5895 5893 5886
5645 5656 5672 5680 5687 5690 5690 5697 5706 5772 5779 5812 5808 5810 5797 5818 5814 5810 5801 5796 5811 5812 5805 5793 5787 5823 5837 5826 5823 5828 5835 5815 5785 5805 5827 5866 5839 5866 5902 5907 5908 5905 5910 5908 5893
5626 5655 5669 5679 5675 5671 5673 5690 5736 5752 5788 5782 5792 5786 5793 5807 5809 5807 5801 5800 5812 5817 5796 5799 5797 5832 5831 5832 5830 5828 5819 5855 5835 5849 5835 5856 5869 5884 5891 5892 5894 5891 5898 5901 5900
5603 5627 5654 5661 5652 5647 5655 5700 5728 5747 5770 5771 5761 5780 5779 5791 5790 5794 5797 5813 5808 5820 5828 5817 5794 5824 5829 5826 5829 5828 5853 5820 5837 5806 5808 5842 5852 5853 5872 5868 5879 5884 5890 5901 5903
5580 5608 5624 5625 5625 5623 5647 5685 5695 5720 5732 5738 5744 5760 5777 5784 5794 5783 5795 5810 5814 5814 5819 5814 5805 5808 5821 5811 5810 5810 5821 5835 5840 5836 5816 5817 5843 5895 5882 5876 5872 5881 5892 5904 5904
5559 5578 5598 5598 5597 5615 5631 5654 5670 5694 5716 5718 5728 5741 5755 5776 5780 5789 5783 5800 5824 5813 5797 5810 5800 5783 5804 5829 5828 5820 5819 5828 5822 5804 5828 5837 5849 5910 5900 5891 5888 5894 5907 5912 5912
5531 5554 5573 5572 5572 5595 5617 5633 5652 5660 5676 5693 5700 5715 5735 5746 5751 5775 5783 5807 5808 5797 5800 5804 5785 5773 5777 5811 5820 5803 5818 5833 5838 5841 5820 5814 5832 5897 5892 5892 5891 5887 5894 5902 5907
5493 5529 5549 5551 5561 5566 5579 5596 5608 5633 5645 5660 5670 5690 5704 5712 5738 5745 5760 5787 5789 5781 5787 5800 5791 5779 5780 5791 5816 5795 5800 5816 5827 5817 5818 5823 5838 5867 5879 5875 5879 5881 5889 5899 5899
5468 5500 5514 5521 5533 5530 5526 5554 5557 5564 5591 5617 5635 5659 5680 5686 5705 5721 5744 5761 5776 5766 5771 5780 5765 5787 5794 5809 5813 5814 5803 5805 5804 5819 5810 5831 5836 5855 5872 5876 5881 5882 5885 5885 5887
5442 5465 5472 5487 5501 5507 5517 5530 5544 5559 5559 5563 5590 5605 5649 5670 5692 5700 5726 5739 5749 5757 5756 5771 5755 5774 5775 5795 5799 5800 5816 5810 5805 5810 5818 5825 5829 5868 5877 5882 5877 5881 5878 5880 5884
5432 5439 5447 5465 5478 5489 5507 5510 5516 5528 5540 5567 5548 5561 5602 5632 5649 5673 5712 5740 5742 5750 5745 5754 5755 5749 5746 5778 5784 5770 5794 5808 5816 5820 5810 5795 5819 5846 5850 5860 5870 5873 5873 5872 5879